Total_Precipitation_Accumulation
0.14 0.19 0.27 0.31 0.26 0.26 0.27 0.30 0.45 0.39 0.49 0.70 0.76 0.69 0.65 0.59 0.45 0.39 0.38 0.33 0.34 0.40 0.52 0.60 0.59 0.60 0.56 0.58 0.61 0.62 0.71 0.81 0.80 0.76 0.72 0.70 0.64 0.54 0.54 0.53 0.48 0.50 0.59 0.64
0.16 0.20 0.27 0.29 0.26 0.21 0.18 0.19 0.25 0.29 0.42 0.49 0.46 0.53 0.56 0.51 0.47 0.44 0.45 0.39 0.38 0.34 0.35 0.43 0.49 0.50 0.49 0.49 0.51 0.56 0.59 0.65 0.73 0.76 0.70 0.65 0.58 0.51 0.50 0.49 0.52 0.54 0.56 0.59
0.24 0.24 0.30 0.36 0.29 0.21 0.17 0.15 0.22 0.38 0.55 0.49 0.43 0.48 0.49 0.42 0.39 0.41 0.34 0.29 0.28 0.26 0.26 0.27 0.28 0.33 0.45 0.45 0.43 0.50 0.58 0.61 0.67 0.71 0.66 0.58 0.49 0.49 0.47 0.48 0.54 0.61 0.59 0.56
0.34 0.42 0.54 0.36 0.22 0.21 0.23 0.18 0.17 0.27 0.39 0.41 0.37 0.39 0.41 0.37 0.33 0.29 0.23 0.20 0.19 0.17 0.17 0.18 0.17 0.21 0.30 0.39 0.47 0.50 0.57 0.62 0.65 0.64 0.64 0.60 0.57 0.55 0.57 0.58 0.59 0.64 0.63 0.58
0.44 0.54 0.47 0.29 0.26 0.29 0.32 0.29 0.20 0.25 0.30 0.30 0.34 0.35 0.41 0.33 0.29 0.24 0.20 0.20 0.21 0.20 0.17 0.20 0.23 0.27 0.38 0.50 0.55 0.58 0.61 0.67 0.68 0.70 0.76 0.76 0.68 0.64 0.65 0.69 0.65 0.65 0.65 0.60
0.52 0.65 0.60 0.43 0.31 0.28 0.34 0.58 0.42 0.35 0.31 0.29 0.35 0.46 0.52 0.37 0.30 0.25 0.23 0.21 0.20 0.21 0.21 0.23 0.29 0.40 0.51 0.65 0.74 0.75 0.70 0.69 0.75 0.78 0.85 0.91 0.89 0.82 0.77 0.79 0.72 0.69 0.66 0.64
0.64 0.74 0.57 0.40 0.33 0.39 0.67 0.81 0.52 0.46 0.43 0.41 0.41 0.39 0.38 0.33 0.26 0.23 0.24 0.24 0.23 0.25 0.28 0.31 0.35 0.44 0.59 0.69 0.77 0.81 0.80 0.79 0.88 0.95 1.03 1.10 1.16 1.13 1.07 0.99 0.93 0.89 0.82 0.81
0.84 0.96 0.86 0.52 0.45 0.64 0.79 0.62 0.56 0.52 0.49 0.46 0.40 0.36 0.34 0.31 0.25 0.22 0.22 0.24 0.28 0.35 0.40 0.36 0.36 0.47 0.60 0.68 0.74 0.84 0.86 0.92 0.99 1.11 1.11 1.16 1.42 1.45 1.43 1.34 1.16 1.08 1.02 0.98
1.00 0.97 0.74 0.68 0.72 0.76 0.78 0.69 0.64 0.54 0.46 0.41 0.37 0.35 0.40 0.39 0.31 0.27 0.24 0.25 0.30 0.40 0.48 0.54 0.58 0.66 0.76 0.78 0.82 0.90 1.00 1.10 1.14 1.20 1.32 1.39 1.50 1.54 1.54 1.51 1.38 1.25 1.19 1.10
1.06 0.97 0.86 0.76 0.63 0.68 0.88 0.79 0.59 0.48 0.45 0.41 0.37 0.31 0.29 0.29 0.29 0.29 0.27 0.30 0.31 0.38 0.56 0.72 0.81 0.82 0.83 0.89 0.99 1.11 1.23 1.32 1.38 1.42 1.42 1.47 1.58 1.59 1.57 1.54 1.48 1.40 1.35 1.27
1.05 1.02 1.00 0.88 0.61 0.49 0.57 0.56 0.46 0.47 0.47 0.42 0.39 0.32 0.26 0.24 0.24 0.27 0.30 0.36 0.41 0.49 0.60 0.68 0.80 0.95 1.03 1.15 1.29 1.36 1.39 1.41 1.43 1.49 1.57 1.64 1.63 1.61 1.61 1.60 1.50 1.48 1.48 1.48
1.05 0.90 0.89 0.83 0.63 0.50 0.42 0.39 0.39 0.49 0.52 0.40 0.35 0.34 0.31 0.27 0.28 0.28 0.30 0.39 0.48 0.60 0.73 0.81 0.96 1.11 1.18 1.30 1.48 1.63 1.62 1.55 1.57 1.60 1.66 1.71 1.69 1.61 1.52 1.42 1.31 1.24 1.25 1.25
0.82 0.74 0.67 0.64 0.58 0.51 0.42 0.38 0.39 0.43 0.44 0.38 0.34 0.33 0.31 0.31 0.32 0.33 0.34 0.42 0.49 0.58 0.70 0.79 0.90 1.08 1.22 1.32 1.41 1.54 1.58 1.56 1.59 1.67 1.73 1.76 1.77 1.75 1.74 1.60 1.43 1.30 1.27 1.25
0.70 0.70 0.68 0.60 0.60 0.60 0.55 0.52 0.50 0.46 0.48 0.47 0.44 0.39 0.36 0.38 0.38 0.40 0.45 0.51 0.54 0.57 0.64 0.74 0.86 0.94 1.06 1.21 1.33 1.41 1.44 1.45 1.44 1.45 1.47 1.50 1.56 1.63 1.70 1.65 1.52 1.39 1.24 1.14
0.58 0.64 0.69 0.63 0.60 0.64 0.62 0.58 0.57 0.54 0.50 0.49 0.48 0.47 0.48 0.51 0.50 0.49 0.50 0.53 0.59 0.64 0.66 0.76 0.91 0.99 1.05 1.19 1.28 1.33 1.34 1.32 1.28 1.30 1.31 1.38 1.43 1.44 1.46 1.50 1.45 1.34 1.18 1.12
0.63 0.63 0.67 0.66 0.68 0.70 0.60 0.57 0.58 0.51 0.43 0.43 0.47 0.52 0.52 0.54 0.56 0.59 0.61 0.62 0.72 0.77 0.78 0.85 0.95 1.03 1.14 1.22 1.25 1.27 1.24 1.25 1.27 1.24 1.24 1.31 1.37 1.36 1.34 1.38 1.42 1.41 1.25 1.16
0.77 0.82 0.79 0.77 0.81 0.77 0.69 0.64 0.59 0.52 0.46 0.48 0.50 0.48 0.48 0.54 0.60 0.65 0.67 0.68 0.73 0.75 0.81 0.92 0.95 1.01 1.17 1.30 1.31 1.26 1.17 1.10 1.17 1.19 1.16 1.18 1.26 1.31 1.30 1.32 1.32 1.26 1.15 1.09
0.81 0.81 0.81 0.82 0.85 0.83 0.78 0.74 0.67 0.66 0.63 0.62 0.66 0.61 0.58 0.59 0.64 0.69 0.71 0.70 0.74 0.73 0.77 0.93 1.03 1.06 1.12 1.36 1.46 1.37 1.24 1.11 1.04 1.05 1.07 1.08 1.12 1.21 1.20 1.19 1.19 1.12 1.02 0.96
0.81 0.81 0.79 0.77 0.72 0.74 0.81 0.82 0.70 0.62 0.59 0.60 0.69 0.70 0.64 0.64 0.68 0.70 0.72 0.75 0.82 0.87 0.86 0.93 1.05 1.05 1.07 1.21 1.35 1.28 1.14 1.09 1.03 1.00 1.06 1.09 1.09 1.11 1.08 1.06 1.07 1.02 0.93 0.89
0.87 0.85 0.79 0.75 0.70 0.69 0.76 0.80 0.74 0.63 0.62 0.64 0.67 0.68 0.66 0.65 0.68 0.72 0.76 0.79 0.83 0.90 0.92 0.94 0.85 0.84 0.93 1.06 1.21 1.16 1.10 1.05 0.98 0.94 0.99 1.05 1.05 1.01 0.92 0.87 0.89 0.86 0.78 0.72
0.85 0.79 0.76 0.72 0.69 0.67 0.70 0.78 0.80 0.74 0.68 0.67 0.67 0.68 0.70 0.68 0.68 0.74 0.83 0.85 0.80 0.79 0.80 0.87 0.79 0.72 0.76 0.95 1.08 1.02 1.01 1.01 0.95 0.89 0.94 1.01 0.96 0.87 0.77 0.74 0.72 0.69 0.69 0.69
0.73 0.71 0.70 0.70 0.69 0.65 0.58 0.61 0.70 0.68 0.64 0.61 0.60 0.65 0.72 0.76 0.76 0.75 0.77 0.86 0.85 0.83 0.75 0.72 0.69 0.68 0.70 0.78 0.84 0.92 0.92 0.94 0.91 0.83 0.82 0.85 0.86 0.82 0.74 0.74 0.74 0.70 0.66 0.67
0.58 0.51 0.50 0.54 0.62 0.63 0.50 0.47 0.51 0.54 0.53 0.52 0.54 0.65 0.76 0.78 0.82 0.90 0.87 0.77 0.76 0.77 0.69 0.65 0.62 0.60 0.58 0.57 0.65 0.73 0.77 0.83 0.83 0.78 0.73 0.70 0.69 0.64 0.62 0.63 0.64 0.60 0.59 0.58
0.48 0.41 0.39 0.42 0.48 0.52 0.53 0.51 0.48 0.49 0.48 0.48 0.48 0.55 0.74 0.83 0.80 0.74 0.73 0.74 0.74 0.65 0.61 0.59 0.53 0.48 0.47 0.48 0.58 0.66 0.70 0.76 0.77 0.76 0.72 0.67 0.65 0.60 0.59 0.59 0.56 0.53 0.53 0.49
0.43 0.37 0.35 0.39 0.48 0.52 0.53 0.55 0.52 0.53 0.56 0.56 0.53 0.56 0.70 0.82 0.86 0.74 0.64 0.63 0.68 0.57 0.52 0.53 0.50 0.48 0.48 0.53 0.63 0.71 0.73 0.73 0.74 0.75 0.69 0.60 0.57 0.55 0.53 0.54 0.53 0.52 0.51 0.46
0.39 0.37 0.35 0.37 0.47 0.56 0.60 0.66 0.70 0.70 0.77 0.79 0.72 0.70 0.74 0.77 0.77 0.72 0.68 0.63 0.62 0.56 0.49 0.51 0.50 0.49 0.50 0.55 0.61 0.66 0.70 0.70 0.69 0.71 0.69 0.65 0.60 0.56 0.55 0.55 0.52 0.50 0.45 0.43
0.39 0.41 0.46 0.46 0.49 0.55 0.62 0.73 0.88 0.97 1.05 1.09 1.07 0.98 0.89 0.81 0.76 0.70 0.67 0.67 0.65 0.60 0.56 0.54 0.55 0.55 0.54 0.55 0.59 0.67 0.74 0.74 0.67 0.63 0.65 0.67 0.67 0.61 0.55 0.52 0.50 0.48 0.45 0.46